Regional Weather Roundup
Issued by NWS Green Bay, WI

Home | Current Version | Previous Version | Text Only | Print | Product List | Glossary On
Versions: 1 2 3 4 5 6 7 8 9 10 11 12 13 14 15 16 17 18 19 20 21 22 23 24 25 26 27 28 29 30 31 32 33 34 35 36 37 38 39 40 41 42 43 44 45 46 47 48 49 50
000
ASUS43 KGRB 240211
RWRGRB

NORTH-CENTRAL AND NORTHEAST WISCONSIN REGIONAL WEATHER ROUNDUP
NATIONAL WEATHER SERVICE GREEN BAY WI
900 PM CDT SAT MAY 23 2015

WIZ005-009-010>012-018-019-240300-
NORTH CENTRAL WISCONSIN

CITY           SKY/WX    TMP DP  RH WIND       PRES   REMARKS
IRONWOOD       MOCLDY    64  41  42 SW8       30.14R
MANITOWISH WTR CLOUDY    64  40  41 CALM      30.18F
ARBOR VITAE    CLOUDY    65  37  34 CALM      30.18F
EAGLE RIVER    CLOUDY    65  33  30 W5        30.18S
LAND O LAKES   CLOUDY    67  35  31 W5        30.19S
RHINELANDER    CLOUDY    64  39  39 CALM      30.19S
PHILLIPS       CLOUDY    60  45  56 CALM      30.17F
ANTIGO         CLOUDY    64  45  49 W3        30.19S
TOMAHAWK       CLOUDY    60  45  57 CALM      30.18F
MERRILL        CLOUDY    62  49  63 CALM      30.18F
$$

WIZ013-073-240300-
NORTHEAST WISCONSIN

CITY           SKY/WX    TMP DP  RH WIND       PRES   REMARKS
IRON MOUNTAIN  PTCLDY    69  38  32 SW5       30.15R
MARINETTE      CLEAR     66  39  37 SW6       30.16R
OCONTO         CLEAR     64  47  55 S5        30.16S
$$

WIZ017-030-035>037-045-240300-
CENTRAL WISCONSIN

CITY           SKY/WX    TMP DP  RH WIND       PRES   REMARKS
MEDFORD        CLOUDY    60  46  58 CALM      30.17F
WAUSAU         MOCLDY    66  43  43 CALM      30.15F
MOSINEE        NOT AVBL
MARSHFIELD     MOCLDY    66  44  45 CALM      30.16F
WISC RAPIDS    MOCLDY    66  42  41 CALM      30.17S
STEVENS POINT  PTCLDY    62  46  55 CALM      30.17S
WAUPACA        MOCLDY    69  43  39 CALM      30.16S
SHAWANO        PTCLDY    65  44  47 CALM      30.16S
CLINTONVILLE   MOCLDY    63  46  55 CALM      30.16S
$$

WIZ038-039-048-051-240300-
FOX VALLEY

CITY           SKY/WX    TMP DP  RH WIND       PRES   REMARKS
NWS GREEN BAY  PTCLDY    68  41  37 S7        30.17S
APPLETON       MOCLDY    68  43  40 SE9       30.18R
OSHKOSH        MOCLDY    65  44  46 S7        30.17R
FOND DU LAC    MOCLDY    64  42  44 S8        30.17S
$$

WIZ022-050-052-240300-
EAST CENTRAL WISCONSIN

CITY           SKY/WX    TMP DP  RH WIND       PRES   REMARKS
STURGEON BAY   CLEAR     63  37  39 S10       30.20S
MANITOWOC      CLOUDY    62  41  46 S5        30.20S
SHEBOYGAN      PTCLDY    59  37  44 S3        30.20S
$$

LMZ563-521-522-541>543-240300-
LAKESHORE

STATION/POSITION TIME  TEMP    WIND        PRES    VSBY  WAVE
                       AIR SEA DIR/SP/G                  HT/PER
                 (UTC) (F)     (DEG/KT/KT) (MB)    (MI)  (FT/S)
SHEBOYGAN LKSHOR 0200   58     210/  6/  8 1023.0R
KEWAUNEE LKSHORE 0100   50     150/  3/  6 1021.5F
NORTHPORT PIER   0100   63     190/  8/ 18 1021.3S
N MID LAKE BUOY  0150   41 36  200/ 10/ 12 1022.1R         2/ 4
SISTER BAY LKSHO 0147   64     200/ 17/ 21   N/A
CHAMBERS ISLAND  0100   66     160/  5/ 12 1021.0S
MENOMINEE LKSHOR 0100   63     180/ 10/ 12 1021.7R
$$



USA.gov is the U.S. government's official web portal to all federal, state and local government web resources and services.